Location: Fontevrault
(47.1823°N, 0.0493°E)
Time: 16:52:49
(UTC+00:00)

Cosmos 1459 Rocket - Pass Details

Date: 22 October 2021
Orbit: 936 x 1000 km, 83.0° (Epoch: 27 November)

Event Time Altitude Azimuth Distance (km) Brightness Sun altitude
Exits shadow 21:08:43 28° 301° (WNW) 1,737 5.7 -41.6°
Drops below altitude 10° 21:13:22 10° 350° (N) 2,688 6.7 -42.2°
Sets 21:16:15 0° 2° (N) 3,629 7.4 -42.6°
